Mount Vernon, IL

9:42 PM CDT on May 22, 2017 (GMT -0500)
Mount Vernon

Weather History for KMVN - March, 2014

Change the Weather History Date:

Thursday, March 27, 2014

  Actual Average Record
Temperature  
Mean Temperature 49 °F -  
Max Temperature 59 °F 57 °F 82 °F (2007)
Min Temperature 39 °F 37 °F 15 °F (2001)
Degree Days  
Heating Degree Days 16    
Moisture  
Dew Point 35 °F    
Average Humidity 57    
Maximum Humidity 77    
Minimum Humidity 36    
Precipitation  
Precipitation 0.02 in - - ()
Sea Level Pressure  
Sea Level Pressure 29.86 in    
Wind  
Wind Speed 13 mph (South)    
Max Wind Speed 28 mph    
Max Gust Speed 37 mph    
Visibility 10 miles    
Events      
Averages and records for this station are not official NWS values.
T = Trace of Precipitation, MM = Missing Value Source: NWS Daily Summary

Daily Weather History Graph

Daily Weather History Graph

Search for Another Location

Airport or City:

Trip Planner

Search our weather history database for the weather conditions in past years. The results will help you decide how hot, cold, wet, or windy it might be!

Date:

Astronomy

Mar. 27, 2014 Rise Set
Actual Time 6:48 AM CDT 7:14 PM CDT
Civil Twilight 6:21 AM CDT 7:40 PM CDT
Nautical Twilight 5:50 AM CDT 8:11 PM CDT
Astronomical Twilight 5:18 AM CDT 8:43 PM CDT
Moon 4:36 AM CDT (3/27) 4:03 PM CDT (3/27)
Length of Visible Light 13h 18m
Length of Day
12h 25m
Waning Crescent, 13% of the Moon is Illuminated
Mar 27
Waning Crescent
Mar 30
New
Apr 7
First Quarter
Apr 15
Full
Apr 22
Last Quarter

Hourly Weather History & Observations

Time (CDT) Temp. Windchill Dew Point Humidity Pressure Visibility Wind Dir Wind Speed Gust Speed Precip Events Conditions
12:15 AM 42.8 °F 38.0 °F 17.6 °F 36% 30.09 in 10.0 mi SE 8.1 mph - N/A   Mostly Cloudy
12:35 AM 42.8 °F 38.0 °F 17.6 °F 36% 30.09 in 10.0 mi SE 8.1 mph - N/A   Overcast
12:55 AM 42.8 °F 38.6 °F 17.6 °F 36% 30.08 in 10.0 mi SE 6.9 mph - N/A   Overcast
1:15 AM 42.8 °F 38.0 °F 17.6 °F 36% 30.07 in 10.0 mi SE 8.1 mph - N/A   Overcast
1:35 AM 42.8 °F 37.5 °F 19.4 °F 39% 30.06 in 10.0 mi SE 9.2 mph - N/A   Overcast
1:55 AM 41.0 °F 36.4 °F 24.8 °F 53% 30.05 in 10.0 mi SE 6.9 mph - N/A   Overcast
2:15 AM 39.2 °F 33.6 °F 26.6 °F 61% 30.04 in 10.0 mi SE 8.1 mph - N/A   Overcast
2:35 AM 39.2 °F 33.6 °F 26.6 °F 61% 30.04 in 10.0 mi SE 8.1 mph - N/A   Overcast
2:55 AM 39.2 °F 35.9 °F 26.6 °F 61% 30.01 in 10.0 mi ESE 4.6 mph - N/A   Overcast
3:15 AM 39.2 °F 35.0 °F 28.4 °F 65% 30.01 in 10.0 mi SE 5.8 mph - N/A   Overcast
3:35 AM 39.2 °F 35.9 °F 28.4 °F 65% 30.01 in 10.0 mi ESE 4.6 mph - N/A   Overcast
3:55 AM 39.2 °F 35.0 °F 26.6 °F 61% 30.00 in 10.0 mi SE 5.8 mph - N/A   Overcast
4:15 AM 39.2 °F 35.9 °F 28.4 °F 65% 29.98 in 10.0 mi ESE 4.6 mph - N/A   Overcast
4:35 AM 39.2 °F 33.6 °F 28.4 °F 65% 29.97 in 10.0 mi SE 8.1 mph - N/A   Overcast
4:55 AM 41.0 °F 35.8 °F 28.4 °F 61% 29.96 in 10.0 mi SE 8.1 mph - N/A   Overcast
5:15 AM 42.8 °F 38.6 °F 28.4 °F 57% 29.95 in 10.0 mi SE 6.9 mph - N/A   Overcast
5:35 AM 42.8 °F 39.3 °F 28.4 °F 57% 29.95 in 10.0 mi SE 5.8 mph - N/A   Overcast
5:55 AM 42.8 °F 38.6 °F 28.4 °F 57% 29.95 in 10.0 mi SE 6.9 mph - N/A   Overcast
6:15 AM 42.8 °F 38.6 °F 28.4 °F 57% 29.94 in 10.0 mi SE 6.9 mph - N/A   Overcast
6:35 AM 42.8 °F 38.0 °F 28.4 °F 57% 29.93 in 10.0 mi SSE 8.1 mph - N/A   Overcast
6:55 AM 44.6 °F 37.4 °F 28.4 °F 53% 29.93 in 10.0 mi SSE 16.1 mph 21.9 mph N/A   Overcast
7:15 AM 46.4 °F 39.8 °F 28.4 °F 50% 29.93 in 10.0 mi SSE 16.1 mph 24.2 mph N/A   Overcast
7:35 AM 46.4 °F 40.4 °F 28.4 °F 50% 29.92 in 10.0 mi South 13.8 mph 23.0 mph N/A   Overcast
7:55 AM 46.4 °F 39.5 °F 28.4 °F 50% 29.93 in 10.0 mi South 17.3 mph 23.0 mph N/A   Overcast
8:15 AM 48.2 °F - 28.4 °F 46% 29.93 in 10.0 mi South 18.4 mph 24.2 mph N/A   Overcast
8:35 AM 48.2 °F - 28.4 °F 46% 29.93 in 10.0 mi South 17.3 mph 25.3 mph N/A   Overcast
8:55 AM 48.2 °F - 28.4 °F 46% 29.93 in 10.0 mi South 18.4 mph 23.0 mph N/A   Overcast
9:15 AM 48.2 °F - 28.4 °F 46% 29.92 in 10.0 mi South 20.7 mph 26.5 mph N/A   Overcast
9:35 AM 50.0 °F - 28.4 °F 43% 29.92 in 10.0 mi South 18.4 mph 25.3 mph N/A   Overcast
9:55 AM 51.8 °F - 28.4 °F 41% 29.92 in 10.0 mi South 17.3 mph 23.0 mph N/A   Overcast
10:15 AM 51.8 °F - 30.2 °F 44% 29.92 in 10.0 mi South 16.1 mph 23.0 mph N/A   Overcast
10:35 AM 51.8 °F - 30.2 °F 44% 29.91 in 10.0 mi South 18.4 mph 24.2 mph N/A   Overcast
10:55 AM 51.8 °F - 32.0 °F 47% 29.91 in 10.0 mi South 16.1 mph 29.9 mph N/A   Overcast
11:15 AM 51.8 °F - 33.8 °F 50% 29.91 in 10.0 mi South 18.4 mph 23.0 mph N/A   Overcast
11:35 AM 51.8 °F - 33.8 °F 50% 29.90 in 10.0 mi South 19.6 mph 29.9 mph N/A   Overcast
11:55 AM 53.6 °F - 33.8 °F 47% 29.89 in 10.0 mi South 21.9 mph 26.5 mph N/A   Overcast
12:15 PM 53.6 °F - 35.6 °F 51% 29.88 in 10.0 mi South 21.9 mph 27.6 mph N/A   Overcast
12:35 PM 55.4 °F - 35.6 °F 47% 29.87 in 10.0 mi South 21.9 mph 29.9 mph N/A   Overcast
12:55 PM 55.4 °F - 35.6 °F 47% 29.87 in 10.0 mi South 27.6 mph 33.4 mph N/A   Overcast
1:15 PM 55.4 °F - 37.4 °F 51% 29.85 in 10.0 mi South 18.4 mph 26.5 mph N/A   Overcast
1:35 PM 55.4 °F - 37.4 °F 51% 29.84 in 10.0 mi South 21.9 mph 29.9 mph N/A   Overcast
1:55 PM 53.6 °F - 39.2 °F 58% 29.82 in 10.0 mi South 16.1 mph 24.2 mph 0.01 in   Overcast
2:15 PM 53.6 °F - 42.8 °F 67% 29.80 in 10.0 mi South 17.3 mph 26.5 mph N/A   Overcast
2:35 PM 55.4 °F - 39.2 °F 54% 29.79 in 10.0 mi South 23.0 mph 32.2 mph 0.01 in   Overcast
2:55 PM 57.2 °F - 41.0 °F 55% 29.77 in 10.0 mi South 15.0 mph 25.3 mph 0.01 in   Overcast
3:15 PM 57.2 °F - 39.2 °F 51% 29.75 in 10.0 mi South 16.1 mph 26.5 mph N/A   Overcast
3:35 PM 57.2 °F - 39.2 °F 51% 29.74 in 10.0 mi South 19.6 mph 29.9 mph N/A   Overcast
3:55 PM 57.2 °F - 39.2 °F 51% 29.73 in 10.0 mi South 20.7 mph 31.1 mph N/A   Overcast
4:15 PM 57.2 °F - 39.2 °F 51% 29.73 in 10.0 mi South 18.4 mph 26.5 mph N/A   Overcast
4:35 PM 59.0 °F - 39.2 °F 48% 29.72 in 10.0 mi South 23.0 mph 27.6 mph N/A   Overcast
4:55 PM 59.0 °F - 39.2 °F 48% 29.73 in 10.0 mi South 21.9 mph 29.9 mph N/A   Overcast
5:15 PM 59.0 °F - 41.0 °F 51% 29.73 in 10.0 mi South 18.4 mph 29.9 mph N/A   Overcast
5:35 PM 59.0 °F - 41.0 °F 51% 29.72 in 10.0 mi South 25.3 mph 32.2 mph N/A   Overcast
5:55 PM 59.0 °F - 41.0 °F 51% 29.72 in 10.0 mi South 21.9 mph 32.2 mph N/A   Overcast
6:15 PM 59.0 °F - 42.8 °F 55% 29.71 in 10.0 mi South 23.0 mph 34.5 mph N/A   Overcast
6:35 PM 57.2 °F - 44.6 °F 63% 29.70 in 10.0 mi South 21.9 mph 29.9 mph N/A   Overcast
6:55 PM 57.2 °F - 44.6 °F 63% 29.70 in 10.0 mi South 20.7 mph 28.8 mph N/A   Overcast
7:15 PM 57.2 °F - 44.6 °F 63% 29.69 in 10.0 mi South 20.7 mph 29.9 mph N/A   Overcast
7:35 PM 55.4 °F - 44.6 °F 67% 29.71 in 10.0 mi South 20.7 mph 28.8 mph N/A   Overcast
7:55 PM 55.4 °F - 46.4 °F 72% 29.73 in 10.0 mi South 20.7 mph 32.2 mph N/A   Overcast
8:15 PM 55.4 °F - 48.2 °F 77% 29.73 in 10.0 mi South 24.2 mph 31.1 mph N/A   Overcast
8:35 PM 55.4 °F - 48.2 °F 77% 29.73 in 10.0 mi South 25.3 mph 33.4 mph N/A   Overcast
8:55 PM 55.4 °F - 46.4 °F 72% 29.72 in 10.0 mi South 26.5 mph 33.4 mph N/A   Overcast
9:15 PM 55.4 °F - 48.2 °F 77% 29.71 in 10.0 mi South 25.3 mph 34.5 mph N/A   Overcast
9:35 PM 55.4 °F - 48.2 °F 77% 29.74 in 10.0 mi South 27.6 mph 35.7 mph N/A   Overcast
9:55 PM 55.4 °F - 48.2 °F 77% 29.74 in 10.0 mi South 21.9 mph 36.8 mph N/A   Overcast
10:15 PM 55.4 °F - 48.2 °F 77% 29.74 in 10.0 mi South 25.3 mph 31.1 mph N/A   Overcast
10:35 PM 55.4 °F - 48.2 °F 77% 29.74 in 10.0 mi South 23.0 mph 28.8 mph N/A   Overcast
10:55 PM 55.4 °F - 48.2 °F 77% 29.73 in 10.0 mi South 23.0 mph 29.9 mph N/A   Overcast
11:15 PM 55.4 °F - 48.2 °F 77% 29.73 in 10.0 mi South 18.4 mph 31.1 mph N/A   Overcast
11:35 PM 55.4 °F - 48.2 °F 77% 29.73 in 10.0 mi South 17.3 mph 28.8 mph N/A   Overcast
11:55 PM 55.4 °F - 48.2 °F 77% 29.74 in 10.0 mi South 19.6 mph 26.5 mph N/A   Overcast